[[{"header":{"parameterUnit":"m.s-1","parameterCategory":1,"la1":30.2991,"la2":30.254,"lo1":-89.0895,"lo2":-89.0444,"dy":0.0017,"dx":0.0017,"nx":28,"ny":28,"refTime":"2025-11-23T09:00:00:Z","depth":0,"parameterNumber":2,"parameterNumberName":"U-component_of_WINDS"},"data":[0,0,0,0,0,0,0,0,0,0,0,0,0,0,0,0,0,0,0,0,0,0,0,0,0,0,0,0,0,0,0,0,0,0,0,0,0,0,0,0,0,0,0,0,0,0,0,0,0,0,0,0,0,0,0,0,0,0,0.349,0.349,0,0.3517,0.3517,0.3517,0.3519,0.3519,0.3519,0.3518,0.3548,0.3549,0.355,0,0,0,0,0,0,0,0,0,0,0,0,0,0.3443,0.3443,0.349,0.349,0.3491,0.3517,0.3517,0.3518,0.3519,0.3519,0.3519,0.3518,0.3548,0.3549,0.355,0,0,0,0,0,0,0,0,0,0,0,0,0,0.3466,0.3444,0.349,0.3495,0.3495,0.3517,0.3517,0.3518,0.3519,0.3519,0.3518,0.3518,0.3547,0.3549,0.355,0.3569,0,0,0.3555,0.3556,0,0,0,0,0,0,0,0,0.3464,0.3467,0.3494,0.3494,0.3495,0.3514,0.3511,0.3535,0.352,0.351,0.3518,0.3518,0.3537,0.354,0.3546,0.3571,0.3572,0.3555,0.3556,0.3557,0.3557,0,0,0,0,0,0,0,0.3463,0.3466,0.3501,0.3494,0.3495,0.3496,0.3499,0.3516,0.3526,0.3511,0.3511,0.3514,0.3538,0.3544,0.3546,0.3573,0.3555,0.3557,0.3558,0.3558,0.3616,0.3617,0,0,0,0,0,0,0.346,0.3465,0.35,0.3501,0.3478,0.3497,0.3501,0.3509,0.3526,0.3528,0.3515,0.3514,0.3542,0.3545,0.3547,0.3571,0.3557,0.3558,0.3559,0.3615,0.3616,0.3617,0,0,0,0,0,0,0.3459,0.3463,0.3499,0.3483,0.3488,0.3499,0.3508,0.3509,0.3516,0.3529,0.3531,0.3519,0.3541,0.3545,0.3564,0.3572,0.3559,0.3561,0.3615,0.3616,0.3616,0.3619,0,0,0,0,0,0,0.3458,0.3463,0.3469,0.3483,0.3489,0.3514,0.3508,0.351,0.3518,0.3518,0.3534,0.3536,0.3541,0.3562,0.3566,0.3574,0.3562,0.3614,0.3615,0.3616,0.3619,0.362,0.3622,0,0,0,0,0,0.3456,0.3469,0.347,0.3474,0.3497,0.3514,0.3518,0.3523,0.3519,0.3526,0.3535,0.3535,0.3571,0.3564,0.3568,0.3578,0.3614,0.3615,0.3616,0.3618,0.362,0.3622,0,0,0,0,0,0,0.3456,0.3471,0.3472,0.349,0.3501,0.3515,0.3524,0.3525,0.3538,0.3537,0.3544,0.3548,0.3567,0.3574,0.3565,0.3598,0.3592,0.3594,0.3592,0.3594,0.3595,0.3593,0.3563,0,0,0,0,0,0.3458,0.347,0.3483,0.3498,0.3503,0.3513,0.352,0.3524,0.3536,0.3541,0.355,0.3563,0.3577,0.3586,0.3599,0.362,0.3624,0.3629,0.363,0.3632,0.3633,0.3646,0.3648,0.3621,0.3621,0.3621,0,0,0.3463,0.3472,0.348,0.3498,0.3507,0.352,0.3516,0.353,0.354,0.3543,0.3561,0.3569,0.3583,0.3603,0.3612,0.361,0.3642,0.3633,0.3634,0.3635,0.3647,0.365,0.3652,0.3622,0.3622,0.3622,0,0,0.3477,0.3486,0.3499,0.3508,0.3522,0.3528,0.3532,0.3546,0.3551,0.3569,0.3572,0.3585,0.3609,0.3619,0.3627,0.3648,0.3649,0.3652,0.366,0.3672,0.3674,0.3676,0.3683,0.3686,0.3654,0.3654,0.3654,0,0.3481,0.35,0.3506,0.352,0.3529,0.3532,0.3546,0.3555,0.3572,0.3579,0.3576,0.3607,0.3616,0.3639,0.3644,0.3651,0.3655,0.365,0.3673,0.3675,0.3677,0.3684,0.3687,0.3654,0.3654,0.3654,0.3654,0,0.3505,0.3518,0.3528,0.3544,0.3554,0.3568,0.3577,0.3586,0.359,0.3597,0.3616,0.3628,0.3645,0.3651,0.3654,0.3674,0.3672,0.3671,0.3665,0.3679,0.3686,0.3689,0.3654,0.3654,0.3654,0.3654,0,0,0.3519,0.354,0.3543,0.3551,0.3567,0.3578,0.3593,0.3608,0.3617,0.3629,0.3642,0.3663,0.3662,0.3672,0.3677,0.3687,0.3703,0.3685,0.3685,0.3688,0.3727,0.3728,0.3731,0.3704,0.3705,0.3705,0.3726,0,0.3536,0.3561,0.3567,0.359,0.3603,0.3607,0.362,0.3632,0.3639,0.3652,0.3661,0.3675,0.3673,0.3679,0.3689,0.3699,0.3711,0.3698,0.3717,0.3718,0.3713,0.3734,0.3735,0.3753,0.3729,0.3729,0.3729,0,0.3558,0.357,0.3594,0.3609,0.3615,0.3626,0.3642,0.3654,0.3668,0.3673,0.3684,0.3688,0.3705,0.3699,0.3723,0.3714,0.3722,0.3729,0.373,0.3731,0.3724,0.3736,0.3759,0.3762,0.3734,0.3733,0.3733,0,0.3566,0.3589,0.3606,0.3613,0.3631,0.3639,0.3647,0.3661,0.367,0.3684,0.3691,0.3707,0.3716,0.3728,0.3737,0.3732,0.3761,0.3755,0.3766,0.3765,0.3771,0.377,0.3795,0.3777,0.3777,0.3777,0.3777,0,0.3583,0.3597,0.361,0.362,0.3637,0.3645,0.3661,0.367,0.3682,0.3695,0.37,0.3712,0.3723,0.3738,0.3745,0.3764,0.3768,0.3773,0.3774,0.3772,0.3771,0.3777,0.3776,0.3778,0.3778,0.3777,0.3777,0,0.3594,0.3603,0.3622,0.3638,0.3643,0.3654,0.3668,0.3679,0.3687,0.3704,0.3708,0.3721,0.3738,0.3749,0.377,0.3775,0.3796,0.3797,0.3791,0.3792,0.3801,0.38,0.383,0.3835,0.3814,0.3814,0.3815,0,0.3604,0.3615,0.3632,0.3641,0.3649,0.3663,0.3673,0.3682,0.3692,0.371,0.3719,0.3736,0.3751,0.3778,0.379,0.3807,0.3808,0.3818,0.3811,0.3809,0.3809,0.3808,0.3809,0.3819,0.3819,0.3819,0.3819,0,0.3621,0.3625,0.3639,0.3654,0.3666,0.3679,0.3691,0.3699,0.371,0.3722,0.3739,0.375,0.3772,0.379,0.3808,0.3817,0.3821,0.3822,0.3825,0.3822,0.3818,0.382,0.3794,0.3821,0.3821,0.382,0.382,0.382,0.3632,0.3642,0.3656,0.3671,0.3682,0.3694,0.3705,0.3715,0.373,0.3748,0.3753,0.3771,0.3787,0.3811,0.3821,0.3836,0.3835,0.384,0.3841,0.3842,0.3842,0.3816,0.384,0.384,0.384,0.384,0.384,0,0.3649,0.3659,0.3673,0.369,0.3703,0.3705,0.3719,0.373,0.3745,0.3759,0.3773,0.3794,0.3811,0.3825,0.3843,0.3852,0.3854,0.3857,0.3856,0.3858,0.3842,0.3837,0.3855,0.3855,0.3855,0.3855,0.3855,0.3855,0.3659,0.3677,0.3683,0.3707,0.3716,0.3734,0.3742,0.3754,0.3765,0.3787,0.3801,0.381,0.3824,0.3844,0.386,0.3864,0.387,0.3872,0.3876,0.3861,0.3859,0.3858,0.3853,0.3874,0.3874,0.3891,0.3891,0.3891]},{"header":{"parameterUnit":"m.s-1","parameterCategory":1,"la1":30.2991,"la2":30.254,"lo1":-89.0895,"lo2":-89.0444,"dy":0.0017,"dx":0.0017,"nx":28,"ny":28,"refTime":"2025-11-23T09:00:00:Z","depth":0,"parameterNumber":3,"parameterNumberName":"V-component_of_WINDS"},"data":[0,0,0,0,0,0,0,0,0,0,0,0,0,0,0,0,0,0,0,0,0,0,0,0,0,0,0,0,0,0,0,0,0,0,0,0,0,0,0,0,0,0,0,0,0,0,0,0,0,0,0,0,0,0,0,0,0,0,-2.0673,-2.0674,0,-2.0731,-2.0731,-2.0732,-2.0742,-2.0741,-2.0741,-2.074,-2.0796,-2.0797,-2.0799,0,0,0,0,0,0,0,0,0,0,0,0,0,-2.0572,-2.0574,-2.0673,-2.0674,-2.0675,-2.073,-2.0731,-2.0732,-2.0742,-2.0741,-2.074,-2.074,-2.0795,-2.0797,-2.08,0,0,0,0,0,0,0,0,0,0,0,0,0,-2.0621,-2.0574,-2.0673,-2.0686,-2.0688,-2.073,-2.0731,-2.0732,-2.0742,-2.0741,-2.074,-2.074,-2.0794,-2.0797,-2.08,-2.0832,0,0,-2.0809,-2.081,0,0,0,0,0,0,0,0,-2.0618,-2.0625,-2.0684,-2.0685,-2.0687,-2.0728,-2.0716,-2.0766,-2.0742,-2.0721,-2.074,-2.0739,-2.0774,-2.0778,-2.079,-2.0835,-2.0837,-2.0809,-2.0811,-2.0812,-2.0813,0,0,0,0,0,0,0,-2.0615,-2.0622,-2.0696,-2.0684,-2.0687,-2.0689,-2.0695,-2.0725,-2.0751,-2.0723,-2.0724,-2.0731,-2.0774,-2.0788,-2.0792,-2.0838,-2.0809,-2.0811,-2.0813,-2.0814,-2.0916,-2.0916,0,0,0,0,0,0,-2.0609,-2.0619,-2.0694,-2.0697,-2.065,-2.0692,-2.0699,-2.0716,-2.075,-2.0755,-2.0731,-2.0731,-2.0783,-2.0788,-2.0794,-2.0837,-2.0812,-2.0815,-2.0816,-2.0915,-2.0916,-2.0917,0,0,0,0,0,0,-2.0607,-2.0616,-2.0692,-2.0659,-2.0669,-2.0694,-2.0713,-2.0717,-2.073,-2.0757,-2.0761,-2.074,-2.0783,-2.079,-2.0824,-2.0838,-2.0816,-2.0819,-2.0913,-2.0915,-2.0916,-2.0921,0,0,0,0,0,0,-2.0604,-2.0615,-2.0627,-2.0659,-2.067,-2.0721,-2.0714,-2.0719,-2.0736,-2.0736,-2.0766,-2.077,-2.0783,-2.0819,-2.0826,-2.0842,-2.0821,-2.0912,-2.0914,-2.0916,-2.0919,-2.0922,-2.0924,0,0,0,0,0,-2.06,-2.0624,-2.0628,-2.0637,-2.0686,-2.0721,-2.0728,-2.0742,-2.0737,-2.075,-2.0767,-2.0769,-2.0836,-2.0823,-2.0831,-2.0847,-2.0911,-2.0914,-2.0916,-2.0918,-2.0921,-2.0924,0,0,0,0,0,0,-2.0591,-2.0629,-2.0633,-2.0668,-2.0692,-2.0723,-2.0739,-2.0745,-2.077,-2.0769,-2.0785,-2.0792,-2.0826,-2.084,-2.0825,-2.0882,-2.0873,-2.0877,-2.0872,-2.0876,-2.0878,-2.0874,-2.0823,0,0,0,0,0,-2.0594,-2.062,-2.0651,-2.0679,-2.0691,-2.0713,-2.0729,-2.0739,-2.0763,-2.0773,-2.0793,-2.0816,-2.0843,-2.086,-2.0885,-2.0921,-2.0929,-2.0937,-2.0939,-2.0941,-2.0945,-2.0969,-2.0973,-2.0924,-2.0924,-2.0924,0,0,-2.0598,-2.0622,-2.0637,-2.0678,-2.0697,-2.0724,-2.0721,-2.0749,-2.077,-2.0777,-2.0811,-2.0827,-2.0854,-2.0891,-2.0907,-2.0903,-2.0961,-2.0944,-2.0946,-2.0948,-2.0971,-2.0976,-2.098,-2.0925,-2.0925,-2.0925,0,0,-2.0621,-2.0641,-2.0668,-2.0689,-2.072,-2.0735,-2.0742,-2.0773,-2.0785,-2.082,-2.0827,-2.0852,-2.0896,-2.0916,-2.0933,-2.0968,-2.0971,-2.0975,-2.0989,-2.1012,-2.1016,-2.1019,-2.1034,-2.1039,-2.0978,-2.0978,-2.0978,0,-2.0622,-2.0664,-2.0681,-2.071,-2.0729,-2.0739,-2.0768,-2.0787,-2.0824,-2.0836,-2.0832,-2.0891,-2.0909,-2.0952,-2.0962,-2.0973,-2.0983,-2.0972,-2.1014,-2.1018,-2.1021,-2.1036,-2.1041,-2.0979,-2.0979,-2.0979,-2.0979,0,-2.0666,-2.0695,-2.0713,-2.0752,-2.0772,-2.08,-2.0823,-2.0842,-2.085,-2.0867,-2.0904,-2.0928,-2.096,-2.0971,-2.0978,-2.1016,-2.1013,-2.1011,-2.1002,-2.1026,-2.104,-2.1046,-2.098,-2.0979,-2.0979,-2.0979,0,0,-2.0681,-2.0733,-2.0739,-2.0759,-2.0795,-2.0818,-2.0848,-2.0882,-2.0899,-2.0925,-2.0951,-2.0991,-2.0991,-2.1009,-2.1019,-2.1039,-2.1069,-2.1035,-2.1036,-2.1043,-2.1116,-2.1118,-2.1124,-2.1072,-2.1073,-2.1074,-2.1114,0,-2.071,-2.0765,-2.0784,-2.083,-2.0858,-2.0871,-2.0897,-2.0923,-2.094,-2.0967,-2.0985,-2.1014,-2.101,-2.1021,-2.1042,-2.1061,-2.1084,-2.1058,-2.1098,-2.1099,-2.1092,-2.1131,-2.1133,-2.117,-2.1119,-2.112,-2.1121,0,-2.0749,-2.078,-2.083,-2.0867,-2.088,-2.0903,-2.0938,-2.0963,-2.0993,-2.1005,-2.1028,-2.1037,-2.107,-2.1059,-2.1106,-2.1088,-2.1105,-2.1118,-2.112,-2.1125,-2.1112,-2.1139,-2.1182,-2.1188,-2.1129,-2.1129,-2.1128,0,-2.0759,-2.0812,-2.085,-2.0866,-2.0909,-2.0927,-2.0945,-2.0975,-2.0996,-2.1026,-2.104,-2.1072,-2.109,-2.1115,-2.1134,-2.1124,-2.118,-2.117,-2.1191,-2.1191,-2.1203,-2.1202,-2.1251,-2.1211,-2.1211,-2.1211,-2.1211,0,-2.079,-2.082,-2.0856,-2.0879,-2.0914,-2.0936,-2.097,-2.0989,-2.1017,-2.1045,-2.1056,-2.1082,-2.1105,-2.1134,-2.1148,-2.1187,-2.1194,-2.1204,-2.1208,-2.1205,-2.1204,-2.1217,-2.1215,-2.1212,-2.1212,-2.1212,-2.1211,0,-2.0806,-2.0831,-2.0873,-2.0913,-2.0924,-2.0949,-2.0983,-2.1006,-2.1025,-2.1061,-2.107,-2.1099,-2.1134,-2.1156,-2.1199,-2.1209,-2.1252,-2.1254,-2.1243,-2.1245,-2.1266,-2.1265,-2.1326,-2.1337,-2.1288,-2.1289,-2.1289,0,-2.0824,-2.0849,-2.0893,-2.0914,-2.0934,-2.0966,-2.0988,-2.1011,-2.1034,-2.1073,-2.1093,-2.1129,-2.116,-2.1216,-2.124,-2.1275,-2.1279,-2.1298,-2.1284,-2.1281,-2.1282,-2.1281,-2.1285,-2.1301,-2.1301,-2.1301,-2.1302,0,-2.0855,-2.0867,-2.09,-2.0938,-2.0965,-2.0996,-2.1026,-2.1042,-2.107,-2.1095,-2.1133,-2.1157,-2.1204,-2.1241,-2.1279,-2.1298,-2.1305,-2.1306,-2.1313,-2.131,-2.1304,-2.1311,-2.1252,-2.1305,-2.1304,-2.1304,-2.1304,-2.1304,-2.0874,-2.0898,-2.0935,-2.0971,-2.0998,-2.1027,-2.1053,-2.1077,-2.1109,-2.1151,-2.1162,-2.1203,-2.1236,-2.1288,-2.1308,-2.134,-2.1337,-2.1347,-2.135,-2.1352,-2.1354,-2.1298,-2.1346,-2.1346,-2.1346,-2.1346,-2.1346,0,-2.0907,-2.0933,-2.0967,-2.1011,-2.1041,-2.1048,-2.1083,-2.1107,-2.1143,-2.1175,-2.1206,-2.1251,-2.1288,-2.1318,-2.1356,-2.1376,-2.1381,-2.1386,-2.1385,-2.139,-2.1353,-2.1344,-2.1382,-2.1382,-2.1382,-2.1382,-2.1382,-2.1382,-2.0928,-2.0971,-2.0988,-2.1045,-2.107,-2.1111,-2.1131,-2.1159,-2.1185,-2.1236,-2.1268,-2.1288,-2.1319,-2.1361,-2.1396,-2.1404,-2.1418,-2.1423,-2.1431,-2.1396,-2.1392,-2.1389,-2.1381,-2.1425,-2.1425,-2.1466,-2.1467,-2.1467]}]]